Location: Bakhuizen
(52.8696°N, 5.4575°E)
Time: 17:06:03
(UTC+00:00)

Meteor 1-12 Rocket - Pass Details

Date: 11 May 2021
Orbit: 854 x 927 km, 81.2° (Epoch: 21 June)

Event Time Altitude Azimuth Distance (km) Brightness Sun altitude
Rises 23:01:24 0° 347° (NNW) 3,553 9.1 -18.6°
Reaches altitude 10° 23:03:56 10° 350° (N) 2,598 8.0 -18.7°
Maximum altitude 23:09:49 67° 73° (ENE) 970 4.5 -18.8°
Enters shadow 23:12:48 29° 148° (SSE) 1,553 5.1 -18.8°
